Location: Weatherford
(35.5260°N, 98.7070°W)
Time: 16:01:25
(UTC-05:00)

OPAL - Visible Passes

Search period start: 01 September 2014 00:00
Search period end: 11 September 2014 00:00
Orbit: 745 x 796 km, 100.2° (Epoch: 01 September)

Date Brightness Start Highest point End Pass type
(mag) Time Alt. Az. Time Alt. Az. Time Alt. Az.
01 Sep 10.4 03:54:00 10° E 03:56:27 14° ENE 03:58:54 10° NNE visible
01 Sep 7.4 05:29:41 10° S 05:34:41 67° WSW 05:39:48 10° NNW visible
02 Sep 8.2 04:54:39 10° SSE 04:59:33 53° ENE 05:04:33 10° N visible
02 Sep 9.0 06:35:50 10° SW 06:38:43 15° W 06:41:38 10° WNW visible
03 Sep 9.7 04:20:35 10° ESE 04:24:36 24° ENE 04:28:41 10° NNE visible
03 Sep 8.0 05:58:39 10° SSW 06:03:15 35° W 06:07:57 10° NW visible
04 Sep 10.6 03:48:28 10° ENE 03:49:52 11° ENE 03:51:16 10° NE visible
04 Sep 7.4 05:22:55 10° SSE 05:27:58 83° WSW 05:33:09 10° NNW visible
05 Sep 8.6 04:48:06 10° SE 04:52:53 43° ENE 04:57:45 10° N visible
05 Sep 8.8 06:28:22 10° SW 06:31:55 19° W 06:35:31 10° NW visible
06 Sep 9.9 04:14:20 10° ESE 04:17:59 20° ENE 04:21:41 10° NNE visible
06 Sep 7.8 05:51:41 10° S 05:56:30 44° W 06:01:25 10° NNW visible
07 Sep 7.5 05:16:11 10° SSE 05:21:16 81° ENE 05:26:27 10° NNW visible
08 Sep 9.0 04:41:37 10° SE 04:46:14 36° ENE 04:50:55 10° N visible
08 Sep 8.5 06:21:06 10° SSW 06:25:08 24° W 06:29:14 10° NW visible
09 Sep 10.2 04:08:13 10° E 04:11:23 17° ENE 04:14:35 10° NNE visible
09 Sep 7.6 05:44:47 10° S 05:49:46 54° WSW 05:54:50 10° NNW visible
10 Sep 7.9 05:09:32 10° SSE 05:14:35 66° ENE 05:19:43 10° N visible
